Location: NJAA Observatory
(40.6819°N, 74.8979°W)
Time: 03:23:54
(UTC-04:00)

Courier 1B - All Passes

Search period start: 31 July 2014 00:00
Search period end: 10 August 2014 00:00
Orbit: 963 x 1209 km, 28.3° (Epoch: 30 July)

Date Brightness Start Highest point End Pass type
(mag) Time Alt. Az. Time Alt. Az. Time Alt. Az.
31 Jul - 01:28:41 10° WSW 01:34:35 24° SSW 01:40:26 10° SSE night (unlit)
31 Jul - 18:59:34 10° SSE 19:00:55 11° SSE 19:02:17 10° SE daylight
31 Jul - 20:48:10 10° SW 20:53:58 25° SSE 20:59:58 10° ESE visible
31 Jul - 22:40:46 10° WSW 22:47:24 33° S 22:54:11 10° ESE visible
01 Aug - 00:34:39 10° WSW 00:40:55 27° SSW 00:47:12 10° SE visible
01 Aug - 02:30:45 10° SW 02:34:08 13° SSW 02:37:30 10° S night (unlit)
01 Aug - 19:55:11 10° SSW 20:00:22 21° SSE 20:05:44 10° ESE daylight
01 Aug - 21:47:14 10° SW 21:53:42 32° S 22:00:23 10° ESE visible
01 Aug - 23:40:46 10° WSW 23:47:13 30° S 23:53:46 10° SE visible
02 Aug - 01:35:52 10° WSW 01:40:33 17° SSW 01:45:14 10° SSE night (unlit)
02 Aug - 19:02:31 10° SSW 19:06:49 17° SSE 19:11:16 10° ESE daylight
02 Aug - 20:53:49 10° SW 21:00:01 29° S 21:06:28 10° ESE visible
02 Aug - 22:47:00 10° WSW 22:53:31 31° S 23:00:11 10° SE visible
03 Aug - 00:41:29 10° WSW 00:46:56 21° SSW 00:52:24 10° SSE visible
03 Aug - 18:10:28 10° S 18:13:20 13° SSE 18:16:15 10° SE daylight
03 Aug - 20:00:34 10° SW 20:06:24 26° SSE 20:12:28 10° ESE daylight
03 Aug - 21:53:22 10° WSW 21:59:49 32° S 22:06:30 10° ESE visible
03 Aug - 23:47:24 10° WSW 23:53:17 24° SSW 23:59:15 10° SE visible
04 Aug - 01:45:09 10° SW 01:46:27 10° SSW 01:47:46 10° SSW night (unlit)
04 Aug - 19:07:30 10° SSW 19:12:49 23° SSE 19:18:21 10° ESE daylight
04 Aug - 20:59:50 10° WSW 21:06:08 32° S 21:12:43 10° ESE visible
04 Aug - 22:53:29 10° WSW 22:59:36 27° SSW 23:05:53 10° SE visible
05 Aug - 00:49:11 10° SW 00:52:53 14° SSW 00:56:36 10° S visible
05 Aug - 18:14:41 10° SSW 18:19:17 19° SSE 18:24:04 10° ESE daylight
05 Aug - 20:06:25 10° SW 20:12:29 30° S 20:18:51 10° ESE daylight
05 Aug - 21:59:44 10° WSW 22:05:56 29° S 22:12:22 10° SE visible
05 Aug - 23:54:33 10° WSW 23:59:17 18° SSW 00:04:05 10° SSE visible
06 Aug - 17:22:14 10° S 17:25:48 15° SSE 17:29:28 10° SE daylight
06 Aug - 19:13:08 10° SW 19:18:53 28° S 19:24:55 10° ESE daylight
06 Aug - 21:06:06 10° WSW 21:12:16 30° S 21:18:44 10° SE visible
06 Aug - 23:00:21 10° WSW 23:05:39 21° SSW 23:11:06 10° SSE visible
07 Aug - 16:30:49 10° SSE 16:32:22 11° SSE 16:33:57 10° SE daylight
07 Aug - 18:19:59 10° SW 18:25:19 24° SSE 18:30:54 10° ESE daylight
07 Aug - 20:12:34 10° WSW 20:18:38 31° S 20:25:00 10° ESE daylight
07 Aug - 22:06:24 10° WSW 22:12:02 24° SSW 22:17:52 10° SE visible
08 Aug - 00:03:28 10° SW 00:05:14 11° SSW 00:06:59 10° SSW visible
08 Aug - 17:27:02 10° SSW 17:31:49 21° SSE 17:36:47 10° ESE daylight
08 Aug - 19:19:09 10° SW 19:25:01 30° S 19:31:12 10° ESE daylight
08 Aug - 21:12:37 10° WSW 21:18:24 26° S 21:24:26 10° SE visible
08 Aug - 23:08:01 10° SW 23:11:39 14° SSW 23:15:22 10° S visible
09 Aug - 16:34:20 10° SSW 16:38:21 17° SSE 16:42:29 10° ESE daylight
09 Aug - 18:25:49 10° SW 18:31:27 28° S 18:37:21 10° ESE daylight
09 Aug - 20:18:58 10° WSW 20:24:47 28° S 20:30:53 10° SE daylight
09 Aug - 22:13:34 10° WSW 22:18:04 17° SSW 22:22:43 10° SSE visible
